period_start,C,m1,H,J0,J1,J2,J3,J4,J5,JA,JB,JC,JD,JJ,JK,JN,#
2014-10-31 00:00:11,0.27,4.52,0.00,23.21,27.75,30.63,4.78,28.02,1011.24,2028.90,1976.35,2277.53,2424.79,349.93,345.53,24.83,0000 0000 0000 0000 000000
2014-10-31 00:05:13,0.27,4.53,0.00,23.20,27.75,30.69,4.80,27.98,1011.24,2028.91,1974.65,2276.27,2423.48,350.10,345.32,24.86,0000 0000 0000 0000 000000
2014-10-31 00:10:14,0.25,4.54,0.00,23.22,27.74,30.69,4.78,28.13,1011.21,2028.93,1972.95,2274.95,2422.05,350.04,345.45,24.89,0000 0000 0000 0000 000000
2014-10-31 00:15:16,0.27,4.54,0.00,23.24,27.75,30.67,4.75,28.18,1011.17,2028.91,1971.29,2273.64,2420.63,349.55,345.23,24.92,0000 0000 0000 0000 000000
2014-10-31 00:20:17,0.21,4.55,0.00,23.31,27.75,30.69,4.81,28.14,1010.96,2028.69,1969.55,2272.29,2419.13,350.17,345.36,24.95,0000 0000 0000 0000 000000
2014-10-31 00:25:18,0.31,4.56,0.00,23.41,27.75,30.68,4.75,28.22,1010.84,2028.65,1967.80,2270.88,2417.65,350.15,345.26,24.98,0000 0000 0000 0000 000000
2014-10-31 00:30:19,0.22,4.57,0.00,23.31,27.75,30.63,4.75,28.14,1010.78,2028.43,1966.11,2269.54,2416.31,350.07,345.38,25.01,0000 0000 0000 0000 000000
2014-10-31 00:35:21,0.29,4.57,0.00,23.18,27.75,30.63,4.76,28.20,1010.77,2028.61,1964.47,2268.30,2414.92,349.85,345.33,25.04,0000 0000 0000 0000 000000
2014-10-31 00:40:22,0.24,4.58,0.00,23.14,27.74,30.69,4.79,28.27,1010.77,2028.50,1962.74,2266.99,2413.48,349.96,345.53,25.07,0000 0000 0000 0000 000000
2014-10-31 00:45:24,0.28,4.59,0.00,23.20,27.74,30.70,4.71,28.13,1010.76,2028.69,1961.19,2265.70,2412.17,349.96,345.42,25.10,0000 0000 0000 0000 000000
2014-10-31 00:50:25,0.22,4.60,0.00,23.24,27.74,30.71,4.84,28.26,1010.76,2028.61,1959.58,2264.46,2410.79,349.89,345.29,25.13,0000 0000 0000 0000 000000
2014-10-31 00:55:26,0.25,4.60,0.00,23.28,27.74,30.71,4.72,28.16,1010.76,2028.42,1957.86,2263.12,2409.44,349.48,344.88,25.16,0000 0000 0000 0000 000000
2014-10-31 01:00:27,0.23,4.61,0.00,23.41,27.74,30.66,4.73,28.16,1010.76,2028.40,1956.25,2261.79,2408.01,349.54,344.67,25.19,0000 0000 0000 0000 000000
2014-10-31 01:05:29,0.30,4.62,0.00,23.27,27.74,30.61,4.76,28.12,1010.76,2028.40,1954.60,2260.56,2406.65,350.07,345.33,25.22,0000 0000 0000 0000 000000
2014-10-31 01:10:30,0.23,4.63,0.00,23.27,27.73,30.58,4.78,28.19,1010.76,2028.32,1952.96,2259.33,2405.33,350.05,345.35,25.25,0000 0000 0000 0000 000000
2014-10-31 01:15:32,0.27,4.63,0.00,23.15,27.74,30.66,4.78,28.23,1010.76,2028.38,1951.36,2258.00,2403.91,350.09,345.60,25.27,0000 0000 0000 0000 000000
2014-10-31 01:20:33,0.25,4.64,0.00,23.19,27.73,30.67,4.83,28.24,1010.74,2028.28,1949.63,2256.68,2402.56,350.33,345.80,25.30,0000 0000 0000 0000 000000
2014-10-31 01:25:34,0.25,4.65,0.00,23.23,27.73,30.69,4.84,28.21,1010.73,2028.20,1947.97,2255.43,2401.18,350.43,345.91,25.33,0000 0000 0000 0000 000000
2014-10-31 01:30:35,0.27,4.66,0.00,23.24,27.73,30.70,4.77,28.12,1010.73,2028.33,1946.34,2254.17,2399.85,350.27,345.66,25.36,0000 0000 0000 0000 000000
2014-10-31 01:35:36,0.26,4.66,0.00,23.32,27.73,30.67,4.79,28.21,1010.72,2028.23,1944.66,2252.85,2398.48,350.06,345.25,25.39,0000 0000 0000 0000 000000
2014-10-31 01:40:38,0.28,4.67,0.00,23.40,27.73,30.62,4.74,28.23,1010.64,2028.19,1942.91,2251.52,2397.03,349.78,344.87,25.42,0000 0000 0000 0000 000000
2014-10-31 01:45:39,0.22,4.68,0.00,23.24,27.73,30.61,4.75,28.14,1010.53,2028.12,1941.31,2250.31,2395.62,350.60,345.93,25.45,0000 0000 0000 0000 000000
2014-10-31 01:50:40,0.27,4.69,0.00,23.10,27.73,30.66,4.74,28.21,1010.53,2028.13,1939.71,2248.98,2394.30,349.24,344.70,25.48,0000 0000 0000 0000 000000
2014-10-31 01:55:42,0.29,4.70,0.00,23.14,27.73,30.70,4.71,28.10,1010.35,2028.20,1938.05,2247.72,2392.91,349.96,345.49,25.51,0000 0000 0000 0000 000000
2014-10-31 02:00:43,0.27,4.70,0.00,23.18,27.72,30.73,4.71,28.19,1010.28,2028.14,1936.44,2246.44,2391.57,349.75,344.87,25.54,0000 0000 0000 0000 000000
2014-10-31 02:05:44,0.23,4.71,0.00,23.24,27.72,30.72,4.76,28.17,1010.28,2028.10,1934.73,2245.09,2390.15,349.78,345.03,25.57,0000 0000 0000 0000 000000
2014-10-31 02:10:45,0.32,4.72,0.00,23.30,27.72,30.68,4.74,28.15,1010.27,2028.11,1932.98,2243.76,2388.72,349.88,345.14,25.60,0000 0000 0000 0000 000000
2014-10-31 02:15:47,0.25,4.73,0.00,23.39,27.72,30.65,4.75,28.14,1010.27,2028.13,1931.42,2242.54,2387.46,350.01,344.85,25.63,0000 0000 0000 0000 000000
2014-10-31 02:20:48,0.25,4.74,0.00,23.24,27.72,30.61,4.79,28.01,1010.27,2028.16,1929.73,2241.29,2386.02,349.98,345.10,25.65,0000 0000 0000 0000 000000
2014-10-31 02:25:49,0.26,4.74,0.00,23.11,27.72,30.65,4.77,28.07,1010.27,2028.17,1928.10,2239.97,2384.66,349.99,345.42,25.68,0000 0000 0000 0000 000000
2014-10-31 02:30:50,0.27,4.75,0.00,23.17,27.72,30.68,4.83,28.16,1010.27,2028.19,1926.48,2238.84,2383.34,350.55,345.49,25.71,0000 0000 0000 0000 000000
2014-10-31 02:35:52,0.28,4.76,0.00,23.24,27.72,30.70,4.74,28.27,1010.23,2028.20,1924.83,2237.57,2381.95,349.94,345.19,25.74,0000 0000 0000 0000 000000
2014-10-31 02:40:52,0.24,4.77,0.00,23.29,27.72,30.70,4.75,28.22,1010.22,2028.11,1923.07,2236.21,2380.43,350.35,345.56,25.77,0000 0000 0000 0000 000000
2014-10-31 02:45:54,0.29,4.78,0.00,23.39,27.73,30.64,4.79,28.20,1010.26,2028.23,1921.50,2234.89,2379.06,350.14,345.10,25.80,0000 0000 0000 0000 000000
2014-10-31 02:50:55,0.30,4.78,0.00,23.30,27.73,30.56,4.77,28.15,1010.27,2028.30,1919.83,2233.60,2377.64,349.71,344.92,25.83,0000 0000 0000 0000 000000
2014-10-31 02:55:56,0.22,4.79,0.00,23.09,27.73,30.63,4.79,28.24,1010.27,2028.22,1918.11,2232.30,2376.24,349.96,345.15,25.86,0000 0000 0000 0000 000000
2014-10-31 03:00:58,0.30,4.80,0.00,23.13,27.73,30.69,4.78,28.22,1010.26,2028.13,1916.38,2230.89,2374.73,349.98,345.53,25.89,0000 0000 0000 0000 000000
2014-10-31 03:05:59,0.28,4.81,0.00,23.21,27.74,30.71,4.72,28.32,1010.15,2028.11,1914.65,2229.51,2373.25,350.03,345.03,25.92,0000 0000 0000 0000 000000
2014-10-31 03:11:01,0.26,4.82,0.00,23.26,27.74,30.70,4.72,28.31,1009.94,2028.07,1912.90,2228.16,2371.79,350.14,345.37,25.95,0000 0000 0000 0000 000000
2014-10-31 03:16:02,0.28,4.82,0.00,23.28,27.74,30.67,4.81,28.25,1009.81,2028.10,1911.29,2226.84,2370.46,350.56,345.58,25.98,0000 0000 0000 0000 000000
2014-10-31 03:21:03,0.28,4.83,0.00,23.40,27.75,30.67,4.74,28.32,1009.83,2028.08,1909.60,2225.56,2368.95,349.72,344.61,26.01,0000 0000 0000 0000 000000
2014-10-31 03:26:04,0.27,4.84,0.00,23.24,27.75,30.63,4.74,28.23,1009.96,2028.02,1907.87,2224.21,2367.55,349.56,344.67,26.04,0000 0000 0000 0000 000000
2014-10-31 03:31:06,0.24,4.85,0.00,23.17,27.75,30.64,4.84,28.34,1010.19,2028.07,1906.38,2223.00,2366.52,349.71,345.01,26.07,0000 0000 0000 0000 000000
2014-10-31 03:36:07,0.28,4.86,0.00,23.13,27.75,30.70,4.79,28.33,1010.24,2028.07,1904.78,2221.80,2365.19,350.06,345.42,26.09,0000 0000 0000 0000 000000
2014-10-31 03:41:09,0.29,4.86,0.00,23.23,27.75,30.71,4.75,28.36,1010.25,2028.10,1903.13,2220.58,2363.82,349.96,345.15,26.12,0000 0000 0000 0000 000000
2014-10-31 03:46:10,0.24,4.87,0.00,23.28,27.75,30.71,4.73,28.41,1010.26,2028.08,1901.56,2219.33,2362.54,349.82,345.16,26.15,0000 0000 0000 0000 000000
2014-10-31 03:51:11,0.26,4.88,0.00,23.31,27.75,30.67,4.78,28.37,1010.27,2028.07,1899.93,2217.99,2361.15,350.39,345.59,26.18,0000 0000 0000 0000 000000
2014-10-31 03:56:13,0.28,4.89,0.00,23.38,27.75,30.64,4.68,28.29,1010.27,2028.06,1898.28,2216.75,2359.79,350.06,344.99,26.21,0000 0000 0000 0000 000000
2014-10-31 04:01:14,0.29,4.90,0.00,23.21,27.75,30.63,4.78,28.28,1010.27,2028.05,1896.60,2215.47,2358.43,350.26,345.19,26.24,0000 0000 0000 0000 000000
2014-10-31 04:06:15,0.26,4.90,0.00,23.04,27.75,30.66,4.79,28.30,1010.28,2028.04,1894.93,2214.20,2356.96,350.13,345.59,26.27,0000 0000 0000 0000 000000
2014-10-31 04:11:17,0.27,4.91,0.00,23.08,27.75,30.72,4.81,28.24,1010.29,2028.07,1893.30,2212.89,2355.67,350.26,345.70,26.30,0000 0000 0000 0000 000000
2014-10-31 04:16:18,0.29,4.92,0.00,23.17,27.74,30.73,4.77,28.30,1010.29,2028.07,1891.64,2211.62,2354.27,349.99,345.27,26.33,0000 0000 0000 0000 000000
2014-10-31 04:21:19,0.27,4.93,0.00,23.25,27.74,30.72,4.75,28.28,1010.28,2028.12,1889.97,2210.40,2352.85,350.14,345.43,26.36,0000 0000 0000 0000 000000
2014-10-31 04:26:21,0.26,4.94,0.00,23.30,27.74,30.70,4.73,28.24,1010.27,2028.12,1888.40,2209.04,2351.52,349.86,345.05,26.39,0000 0000 0000 0000 000000
2014-10-31 04:31:22,0.29,4.95,0.00,23.41,27.74,30.65,4.76,28.32,1010.27,2028.09,1886.66,2207.77,2350.10,350.04,345.13,26.42,0000 0000 0000 0000 000000
2014-10-31 04:36:23,0.29,4.95,0.00,23.21,27.74,30.63,4.79,28.39,1010.27,2028.07,1884.95,2206.47,2348.66,350.04,345.38,26.45,0000 0000 0000 0000 000000
2014-10-31 04:41:24,0.26,4.96,0.00,23.03,27.74,30.65,4.81,28.45,1010.27,2028.06,1883.19,2205.06,2347.25,351.01,346.43,26.48,0000 0000 0000 0000 000000
2014-10-31 04:46:25,0.27,4.97,0.00,23.09,27.74,30.70,4.82,28.36,1010.26,2028.10,1881.61,2203.85,2345.90,350.61,346.02,26.50,0000 0000 0000 0000 000000
2014-10-31 04:51:27,0.28,4.98,0.00,23.16,27.74,30.71,4.74,28.38,1010.21,2028.04,1880.00,2202.58,2344.59,349.77,345.27,26.53,0000 0000 0000 0000 000000
2014-10-31 04:56:27,0.25,4.99,0.00,23.28,27.74,30.68,4.76,28.25,1010.02,2028.05,1878.39,2201.35,2343.22,349.74,345.14,26.56,0000 0000 0000 0000 000000
2014-10-31 05:01:29,0.30,5.00,0.00,23.38,27.74,30.67,4.79,28.34,1010.08,2028.15,1876.75,2200.08,2341.82,349.86,344.86,26.59,0000 0000 0000 0000 000000
2014-10-31 05:06:30,0.29,5.00,0.00,23.33,27.74,30.61,4.77,28.39,1010.18,2028.13,1875.06,2198.73,2340.46,350.02,345.18,26.62,0000 0000 0000 0000 000000
2014-10-31 05:11:31,0.27,5.01,0.00,23.15,27.74,30.61,4.83,28.34,1010.17,2028.08,1873.46,2197.48,2339.08,350.24,345.51,26.65,0000 0000 0000 0000 000000
2014-10-31 05:16:32,0.26,5.02,0.00,23.11,27.73,30.68,4.78,28.60,1010.12,2028.12,1871.82,2196.26,2337.71,349.82,345.10,26.68,0000 0000 0000 0000 000000
2014-10-31 05:21:33,0.29,5.03,0.00,23.17,27.73,30.72,4.86,28.51,1010.17,2028.20,1870.21,2194.94,2336.42,350.44,345.49,26.71,0000 0000 0000 0000 000000
2014-10-31 05:26:34,0.27,5.04,0.00,23.21,27.72,30.70,4.76,28.43,1010.23,2028.08,1868.53,2193.65,2334.94,350.26,345.52,26.74,0000 0000 0000 0000 000000
2014-10-31 05:31:36,0.29,5.04,0.00,23.33,27.72,30.65,4.79,28.44,1010.24,2028.10,1866.83,2192.45,2333.60,350.09,345.21,26.77,0000 0000 0000 0000 000000
2014-10-31 05:36:37,0.23,5.05,0.00,23.41,27.72,30.62,4.67,28.57,1010.26,2028.09,1865.27,2191.11,2332.26,349.45,344.51,26.80,0000 0000 0000 0000 000000
2014-10-31 05:41:38,0.31,5.06,0.00,23.31,27.72,30.59,4.78,28.39,1010.27,2028.08,1863.61,2189.83,2330.82,349.95,345.30,26.83,0000 0000 0000 0000 000000
2014-10-31 05:46:40,0.27,5.07,0.00,23.11,27.72,30.61,4.78,28.32,1010.26,2028.05,1862.03,2188.58,2329.50,349.54,345.10,26.86,0000 0000 0000 0000 000000
2014-10-31 05:51:41,0.24,5.08,0.00,23.12,27.72,30.67,4.76,28.32,1010.27,2028.04,1860.51,2187.39,2328.17,350.12,345.63,26.89,0000 0000 0000 0000 000000
2014-10-31 05:56:42,0.28,5.08,0.00,23.23,27.72,30.68,4.80,28.28,1010.27,2028.07,1858.88,2186.14,2326.85,350.20,345.25,26.91,0000 0000 0000 0000 000000
2014-10-31 06:01:43,0.30,5.09,0.00,23.26,27.72,30.69,4.72,28.36,1010.28,2028.15,1857.36,2184.92,2325.58,349.62,344.70,26.94,0000 0000 0000 0000 000000
2014-10-31 06:06:44,0.25,5.10,0.00,23.34,27.72,30.65,4.77,28.27,1010.27,2028.05,1855.70,2183.62,2324.17,350.72,345.84,26.97,0000 0000 0000 0000 000000
2014-10-31 06:11:46,0.26,5.11,0.00,23.23,27.72,30.64,4.73,28.13,1010.29,2028.06,1854.22,2182.36,2322.75,349.65,344.85,27.00,0000 0000 0000 0000 000000
2014-10-31 06:16:47,0.28,5.12,0.00,23.18,27.72,30.64,4.82,28.20,1010.33,2028.13,1852.66,2181.20,2321.49,350.11,345.55,27.03,0000 0000 0000 0000 000000
2014-10-31 06:21:48,0.28,5.13,0.00,23.12,27.72,30.68,4.74,28.11,1010.35,2028.09,1851.03,2179.85,2320.11,349.75,345.17,27.06,0000 0000 0000 0000 000000
2014-10-31 06:26:50,0.28,5.13,0.00,23.18,27.72,30.68,4.84,28.23,1010.44,2028.08,1849.44,2178.60,2318.74,349.66,345.18,27.09,0000 0000 0000 0000 000000
2014-10-31 06:31:51,0.27,5.14,0.00,23.26,27.72,30.69,4.69,28.18,1010.36,2028.04,1847.77,2177.32,2317.38,349.59,344.88,27.12,0000 0000 0000 0000 000000
2014-10-31 06:36:52,0.27,5.15,0.00,23.34,27.72,30.64,4.76,28.28,1010.30,2028.04,1846.12,2175.97,2315.95,350.37,345.14,27.15,0000 0000 0000 0000 000000
2014-10-31 06:41:53,0.29,5.16,0.00,23.20,27.72,30.62,4.72,28.15,1010.37,2028.01,1844.42,2174.72,2314.55,349.49,345.08,27.18,0000 0000 0000 0000 000000
2014-10-31 06:46:55,0.28,5.17,0.00,23.09,27.72,30.64,4.74,28.28,1010.55,2028.03,1842.81,2173.55,2313.23,349.57,345.06,27.21,0000 0000 0000 0000 000000
2014-10-31 06:51:56,0.25,5.17,0.00,23.15,27.72,30.65,4.80,28.22,1010.50,2028.04,1841.26,2172.35,2311.92,349.68,345.07,27.24,0000 0000 0000 0000 000000
2014-10-31 06:56:57,0.28,5.18,0.00,23.23,27.72,30.66,4.74,28.30,1010.31,2028.02,1839.69,2171.07,2310.55,349.62,345.04,27.27,0000 0000 0000 0000 000000
2014-10-31 07:01:58,0.30,5.19,0.00,23.30,27.72,30.67,4.79,28.31,1010.27,2028.02,1837.94,2169.73,2309.12,350.16,345.17,27.30,0000 0000 0000 0000 000000
2014-10-31 07:06:59,0.28,5.20,0.00,23.34,27.72,30.64,4.77,28.35,1010.27,2028.01,1836.37,2168.51,2307.79,349.77,344.77,27.32,0000 0000 0000 0000 000000
2014-10-31 07:12:00,0.27,5.21,0.00,23.12,27.72,30.63,4.83,28.39,1010.27,2028.02,1834.71,2167.31,2306.55,350.27,345.70,27.35,0000 0000 0000 0000 000000
2014-10-31 07:17:01,0.25,5.22,0.00,23.01,27.72,30.68,4.84,28.36,1010.27,2028.01,1833.11,2166.01,2305.18,349.91,345.55,27.38,0000 0000 0000 0000 000000
2014-10-31 07:22:02,0.29,5.22,0.00,23.06,27.72,30.71,4.77,28.30,1010.26,2028.02,1831.61,2164.83,2303.90,350.28,345.68,27.41,0000 0000 0000 0000 000000
2014-10-31 07:27:04,0.31,5.23,0.00,23.18,27.72,30.71,4.75,28.26,1010.25,2028.01,1829.90,2163.55,2302.59,349.70,345.06,27.44,0000 0000 0000 0000 000000
2014-10-31 07:32:05,0.26,5.24,0.00,23.28,27.72,30.68,4.78,28.27,1010.27,2028.02,1828.22,2162.28,2301.31,349.84,345.04,27.47,0000 0000 0000 0000 000000
2014-10-31 07:37:06,0.27,5.25,0.00,23.34,27.72,30.66,4.78,28.43,1010.27,2028.04,1826.59,2161.05,2299.95,349.87,344.77,27.50,0000 0000 0000 0000 000000
2014-10-31 07:42:07,0.30,5.26,0.00,23.19,27.72,30.59,4.79,28.30,1010.27,2028.03,1824.89,2159.82,2298.57,349.81,345.04,27.53,0000 0000 0000 0000 000000
2014-10-31 07:47:09,0.27,5.27,0.00,23.01,27.72,30.65,4.72,28.20,1010.27,2028.03,1823.38,2158.58,2297.31,349.87,345.68,27.56,0000 0000 0000 0000 000000
2014-10-31 07:52:10,0.27,5.27,0.00,23.10,27.72,30.68,4.77,28.27,1010.27,2028.03,1821.75,2157.39,2296.00,349.72,345.17,27.59,0000 0000 0000 0000 000000
2014-10-31 07:57:11,0.27,5.28,0.00,23.16,27.72,30.69,4.75,28.24,1010.28,2028.04,1820.16,2156.16,2294.67,349.78,345.01,27.62,0000 0000 0000 0000 000000
2014-10-31 08:02:13,0.28,5.29,0.00,23.20,27.72,30.68,4.74,28.29,1010.28,2028.12,1818.58,2154.93,2293.40,350.19,345.36,27.65,0000 0000 0000 0000 000000
2014-10-31 08:07:14,0.27,5.30,0.00,23.30,27.72,30.68,4.89,28.23,1010.27,2028.05,1817.05,2153.66,2292.07,350.63,345.69,27.68,0000 0000 0000 0000 000000
2014-10-31 08:12:15,0.30,5.31,0.00,23.36,27.72,30.65,4.82,28.43,1010.27,2028.06,1815.53,2152.45,2290.71,349.96,345.05,27.71,0000 0000 0000 0000 000000
2014-10-31 08:17:17,0.25,5.32,0.00,23.12,27.72,30.63,4.79,28.32,1010.27,2028.06,1813.96,2151.36,2289.49,350.00,345.48,27.73,0000 0000 0000 0000 000000
2014-10-31 08:22:18,0.25,5.32,0.00,23.04,27.72,30.68,4.79,28.31,1010.25,2028.09,1812.51,2150.15,2288.24,349.91,345.45,27.76,0000 0000 0000 0000 000000
2014-10-31 08:27:19,0.27,5.33,0.00,23.15,27.72,30.70,4.84,28.36,1010.21,2028.08,1810.94,2148.95,2286.98,350.77,346.03,27.79,0000 0000 0000 0000 000000
2014-10-31 08:32:20,0.29,5.34,0.00,23.24,27.72,30.68,4.82,28.42,1010.22,2028.05,1809.42,2147.68,2285.61,349.79,345.10,27.82,0000 0000 0000 0000 000000
2014-10-31 08:37:21,0.26,5.35,0.00,23.30,27.72,30.67,4.79,28.50,1010.25,2028.01,1807.81,2146.56,2284.37,350.37,345.53,27.85,0000 0000 0000 0000 000000
2014-10-31 08:42:23,0.25,5.36,0.00,23.32,27.72,30.63,4.75,28.24,1010.27,2028.01,1806.29,2145.32,2283.00,350.45,345.63,27.88,0000 0000 0000 0000 000000
2014-10-31 08:47:24,0.24,5.36,0.00,23.16,27.72,30.63,4.80,28.40,1010.27,2028.01,1804.90,2144.24,2281.85,350.42,345.78,27.91,0000 0000 0000 0000 000000
2014-10-31 08:52:25,0.26,5.37,0.00,23.06,27.72,30.67,4.78,28.38,1010.28,2028.02,1803.53,2143.17,2280.69,350.14,345.59,27.94,0000 0000 0000 0000 000000
2014-10-31 08:57:27,0.25,5.38,0.00,23.09,27.72,30.70,4.78,28.33,1010.28,2028.04,1802.04,2142.02,2279.51,349.90,345.46,27.97,0000 0000 0000 0000 000000
2014-10-31 09:02:28,0.25,5.38,0.00,23.14,27.72,30.73,4.82,28.37,1010.28,2028.04,1800.57,2140.92,2278.34,350.40,345.71,28.00,0000 0000 0000 0000 000000
2014-10-31 09:07:29,0.23,5.39,0.00,23.15,27.72,30.72,4.77,28.37,1010.27,2028.05,1799.21,2139.85,2277.15,349.71,345.07,28.03,0000 0000 0000 0000 000000
2014-10-31 09:12:30,0.26,5.40,0.00,23.20,27.72,30.69,4.81,28.34,1010.27,2028.04,1797.84,2138.76,2276.03,350.24,345.46,28.06,0000 0000 0000 0000 000000
2014-10-31 09:17:31,0.24,5.41,0.00,23.28,27.72,30.68,4.80,28.35,1010.27,2028.07,1796.55,2137.78,2274.90,349.83,345.02,28.09,0000 0000 0000 0000 000000
2014-10-31 09:22:33,0.24,5.41,0.00,23.40,27.72,30.66,4.74,28.30,1010.27,2028.04,1795.12,2136.65,2273.74,349.52,344.59,28.12,0000 0000 0000 0000 000000
2014-10-31 09:27:34,0.26,5.42,0.00,23.22,27.72,30.54,4.77,28.30,1010.27,2028.06,1793.74,2135.65,2272.64,349.96,345.22,28.15,0000 0000 0000 0000 000000
2014-10-31 09:32:36,0.23,5.43,0.00,23.09,27.72,30.61,4.85,28.35,1010.27,2028.03,1792.49,2134.59,2271.53,350.64,346.06,28.17,0000 0000 0000 0000 000000
2014-10-31 09:37:37,0.21,5.43,0.00,23.17,27.72,30.66,4.73,28.37,1010.27,2028.02,1791.18,2133.58,2270.34,349.92,345.14,28.20,0000 0000 0000 0000 000000
2014-10-31 09:42:38,0.23,5.44,0.00,23.24,27.72,30.66,4.82,28.41,1010.27,2028.03,1789.88,2132.52,2269.23,349.90,345.16,28.23,0000 0000 0000 0000 000000
2014-10-31 09:47:39,0.23,5.45,0.00,23.28,27.72,30.66,4.80,28.39,1010.27,2028.02,1788.65,2131.58,2268.21,350.57,345.61,28.26,0000 0000 0000 0000 000000
2014-10-31 09:52:41,0.22,5.45,0.00,23.31,27.72,30.61,4.81,28.33,1010.27,2028.04,1787.33,2130.60,2267.16,350.09,345.15,28.29,0000 0000 0000 0000 000000
2014-10-31 09:57:42,0.20,5.46,0.00,23.13,27.72,30.63,4.83,28.45,1010.27,2028.04,1786.10,2129.64,2266.06,349.71,345.05,28.32,0000 0000 0000 0000 000000
2014-10-31 10:02:43,0.25,5.47,0.00,23.06,27.72,30.65,4.74,28.40,1010.26,2028.02,1784.77,2128.66,2264.98,349.44,345.15,28.35,0000 0000 0000 0000 000000
2014-10-31 10:07:45,0.23,5.47,0.00,23.12,27.72,30.69,4.78,28.40,1010.26,2028.02,1783.51,2127.66,2263.90,350.08,345.23,28.38,0000 0000 0000 0000 000000
2014-10-31 10:12:46,0.23,5.48,0.00,23.13,27.72,30.69,4.76,28.43,1010.27,2028.08,1782.21,2126.68,2262.85,350.34,345.74,28.41,0000 0000 0000 0000 000000
2014-10-31 10:17:48,0.25,5.49,0.00,23.21,27.72,30.70,4.78,28.40,1010.27,2028.06,1780.88,2125.68,2261.71,349.52,344.80,28.44,0000 0000 0000 0000 000000
2014-10-31 10:22:49,0.24,5.50,0.00,23.31,27.72,30.68,4.79,28.41,1010.28,2028.02,1779.58,2124.61,2260.59,350.14,345.44,28.47,0000 0000 0000 0000 000000
2014-10-31 10:27:50,0.23,5.50,0.00,23.37,27.72,30.66,4.73,28.38,1010.36,2028.02,1778.22,2123.61,2259.47,349.38,344.50,28.50,0000 0000 0000 0000 000000
2014-10-31 10:32:51,0.25,5.51,0.00,23.34,27.72,30.61,4.74,28.23,1010.56,2028.02,1776.87,2122.50,2258.31,350.07,345.12,28.53,0000 0000 0000 0000 000000
2014-10-31 10:37:53,0.25,5.52,0.00,23.21,27.72,30.59,4.75,28.42,1010.50,2028.02,1775.56,2121.39,2257.09,350.17,345.45,28.55,0000 0000 0000 0000 000000
2014-10-31 10:42:54,0.22,5.53,0.00,23.16,27.72,30.61,4.79,28.24,1010.54,2028.02,1774.23,2120.43,2255.99,349.85,345.30,28.58,0000 0000 0000 0000 000000
2014-10-31 10:47:55,0.24,5.53,0.00,23.10,27.72,30.69,4.71,28.21,1010.51,2028.02,1772.87,2119.43,2254.92,349.48,344.99,28.61,0000 0000 0000 0000 000000
2014-10-31 10:52:57,0.25,5.54,0.00,23.19,27.72,30.69,4.82,28.42,1010.60,2028.03,1771.56,2118.39,2253.80,350.48,345.93,28.64,0000 0000 0000 0000 000000
2014-10-31 10:57:58,0.22,5.55,0.00,23.27,27.72,30.67,4.80,28.28,1010.59,2028.02,1770.23,2117.36,2252.71,350.07,345.38,28.67,0000 0000 0000 0000 000000
2014-10-31 11:02:59,0.25,5.55,0.00,23.29,27.72,30.65,4.77,28.32,1010.44,2028.02,1768.89,2116.33,2251.59,350.27,345.57,28.70,0000 0000 0000 0000 000000
2014-10-31 11:08:01,0.24,5.56,0.00,23.36,27.72,30.61,4.74,28.32,1010.35,2028.02,1767.60,2115.32,2250.50,349.21,344.45,28.73,0000 0000 0000 0000 000000
2014-10-31 11:13:02,0.22,5.57,0.00,23.23,27.72,30.59,4.74,28.40,1010.29,2028.03,1766.36,2114.27,2249.38,350.13,345.68,28.76,0000 0000 0000 0000 000000
2014-10-31 11:18:04,0.23,5.58,0.00,23.17,27.72,30.58,4.78,28.36,1010.28,2028.04,1765.04,2113.25,2248.27,349.72,345.16,28.79,0000 0000 0000 0000 000000
2014-10-31 11:23:05,0.26,5.58,0.00,23.07,27.72,30.66,4.73,28.38,1010.28,2028.03,1763.70,2112.16,2247.12,349.87,345.31,28.82,0000 0000 0000 0000 000000
2014-10-31 11:28:07,0.23,5.59,0.00,23.10,27.72,30.68,4.78,28.51,1010.28,2028.04,1762.40,2111.18,2246.08,349.93,345.18,28.85,0000 0000 0000 0000 000000
2014-10-31 11:33:08,0.22,5.60,0.00,23.20,27.72,30.68,4.75,28.48,1010.29,2028.06,1761.09,2110.42,2244.99,350.00,345.33,28.88,0000 0000 0000 0000 000000
2014-10-31 11:38:09,0.26,5.60,0.00,23.27,27.72,30.66,4.77,28.52,1010.28,2028.05,1759.73,2109.38,2243.78,349.64,344.93,28.91,0000 0000 0000 0000 000000
2014-10-31 11:43:11,0.23,5.61,0.00,23.32,27.71,30.65,4.74,28.45,1010.30,2028.02,1758.49,2108.29,2242.76,350.16,345.33,28.94,0000 0000 0000 0000 000000
2014-10-31 11:48:12,0.23,5.62,0.00,23.32,27.71,30.55,4.75,28.39,1010.46,2028.01,1757.20,2107.31,2241.66,349.98,345.25,28.97,0000 0000 0000 0000 000000
2014-10-31 11:53:13,0.23,5.62,0.00,23.18,27.71,30.60,4.74,28.35,1010.55,2028.03,1755.93,2106.30,2240.58,349.58,344.91,28.99,0000 0000 0000 0000 000000
2014-10-31 11:58:15,0.23,5.63,0.00,23.07,27.71,30.64,4.73,28.32,1010.64,2028.02,1754.74,2105.34,2239.60,350.09,345.67,29.02,0000 0000 0000 0000 000000
2014-10-31 12:03:16,0.22,5.64,0.00,23.11,27.70,30.65,4.77,28.43,1010.53,2028.01,1753.53,2104.42,2238.69,349.95,345.33,29.05,0000 0000 0000 0000 000000
2014-10-31 12:08:17,0.22,5.64,0.00,23.23,27.70,30.66,4.79,28.38,1010.35,2028.04,1752.31,2103.48,2237.69,350.07,345.25,29.08,0000 0000 0000 0000 000000
2014-10-31 12:13:18,0.22,5.65,0.00,23.27,27.70,30.66,4.77,28.42,1010.30,2028.02,1751.06,2102.51,2236.64,350.26,345.48,29.11,0000 0000 0000 0000 000000
2014-10-31 12:18:19,0.23,5.66,0.00,23.34,27.70,30.63,4.79,28.48,1010.28,2028.01,1749.83,2101.57,2235.62,349.75,344.85,29.14,0000 0000 0000 0000 000000
2014-10-31 12:23:21,0.24,5.66,0.00,23.30,27.70,30.56,4.82,28.55,1010.27,2028.00,1748.58,2100.58,2234.54,350.03,345.11,29.17,0000 0000 0000 0000 000000
2014-10-31 12:28:22,0.22,5.67,0.00,23.24,27.70,30.59,4.77,28.58,1010.26,2028.00,1747.37,2099.57,2233.46,349.65,344.83,29.20,0000 0000 0000 0000 000000
2014-10-31 12:33:23,0.22,5.68,0.00,23.13,27.70,30.62,4.75,28.59,1010.26,2028.00,1746.06,2098.55,2232.40,349.90,345.07,29.23,0000 0000 0000 0000 000000
2014-10-31 12:38:25,0.25,5.68,0.00,23.09,27.70,30.67,4.76,28.54,1010.24,2028.01,1744.74,2097.61,2231.43,349.69,345.10,29.26,0000 0000 0000 0000 000000
2014-10-31 12:43:26,0.21,5.69,0.00,23.13,27.70,30.68,4.77,28.60,1010.22,2028.01,1743.63,2096.71,2230.36,349.70,345.05,29.29,0000 0000 0000 0000 000000
2014-10-31 12:48:27,0.22,5.70,0.00,23.21,27.70,30.69,4.82,28.62,1010.20,2028.01,1742.41,2095.76,2229.28,350.51,345.75,29.32,0000 0000 0000 0000 000000
2014-10-31 12:53:28,0.20,5.71,0.00,23.27,27.70,30.68,4.77,28.51,1010.10,2028.03,1741.21,2094.84,2228.35,349.63,344.96,29.35,0000 0000 0000 0000 000000
2014-10-31 12:58:29,0.27,5.71,0.00,23.28,27.70,30.63,4.78,28.51,1009.86,2028.01,1739.85,2093.78,2227.20,349.60,344.58,29.38,0000 0000 0000 0000 000000